Weather Roundup
Issued by NWS Chicago, IL

Home | Current Version | Previous Version | Text Only | Print | Product List | Glossary Off
Versions: 1 2 3 4 5 6 7 8 9 10 11 12 13 14 15 16 17 18 19 20 21 22 23 24 25 26 27 28 29 30 31 32 33 34 35 36 37 38 39 40 41 42 43 44 45 46 47 48 49 50

000
NZUS59 KLOT 232208
HRRLOT

CHICAGO AREA WEATHER ROUNDUP
NATIONAL WEATHER SERVICE CHICAGO/ROMEOVILLE IL
400 PM CST THU NOV 23 2017

NOTE: "FAIR" INDICATES FEW OR NO CLOUDS BELOW 12,000 FEET WITH NO
SIGNIFICANT WEATHER AND/OR OBSTRUCTIONS TO VISIBILITY.

* THESE STATIONS ARE NOT UNDER NWS QUALITY CONTROL. THEY ALSO MAY NOT
  REPORT WEATHER SUCH AS PRECIPITATION OR FOG.

ILZ005-006-012>014-019>023-232300-
NORTHEAST ILLINOIS

CITY           SKY/WX    TMP DP  RH WIND       PRES   REMARKS
OHARE          CLEAR     44  25  47 W8        29.91S
MIDWAY         CLEAR     46  26  45 SW8       29.91F
AURORA         CLEAR     44  28  53 SW6       29.92S
LANSING*       CLEAR     45  30  56 SW7       29.92F
JOLIET*        CLEAR     47  28  46 SW3       29.92F
WAUKEGAN       CLEAR     43  25  49 CALM      29.90R
DUPAGE AIRPORT CLEAR     42  27  55 SW7       29.91S
WHEELING       CLEAR     45  26  47 SW6       29.92S
KANKAKEE*      CLEAR     46  28  49 SW7       29.94S
MORRIS*        CLEAR     45  27  50 W5        29.92S
LEWIS AIRPORT* CLEAR     44  28  53 SW7       29.92S
NORTHERLY ISL    N/A     46  23  40 SW9         N/A
$$

WIZ051-052-058>065-066-070>072-232300-
SOUTHEAST WISCONSIN

CITY           SKY/WX    TMP DP  RH WIND       PRES   REMARKS
MILWAUKEE      PTCLDY    44  23  43 SW10      29.91R
KENOSHA*       CLEAR     42  24  49 W8        29.91R
RACINE*        CLEAR     43  24  47 W7        29.92R
BURLINGTON     CLEAR     44  29  57 W5        29.91R
WAUKESHA       CLEAR     39  21  48 W8        29.91R
WEST BEND      CLEAR     39  21  48 W7        29.89R
$$

INZ001>003-010>013-019-020-232300-
NORTHWEST INDIANA

CITY           SKY/WX    TMP DP  RH WIND       PRES   REMARKS
GARY*          CLEAR     48  23  37 SW8       29.92F
MICHIGAN CITY* NOT AVBL
RENSSELAER*    NOT AVBL
VALPARAISO     CLEAR     46  27  47 SW8       29.94S
$$

LMZ740>746-232300-
SOUTHERN LAKE MICHIGAN

STATION/POSITION TIME  SKY/WX   TEMP WIND        PRES    VSBY
                                AIR  DIR/SP/G
                 (UTC)          (F)  (DEG/KT/KT) (MB)    (MI)
HARRISON CRIB    2140            47  230/  7/  8   N/A
BURNHAM HARBOR   2200            46  220/  5/ 11   N/A
CALUMET HARBOR   2130            47  220/  7/ 12 1012.4S
BURNS HARBOR     2140            46  220/  8/ 12 1013.9S
MICHIGAN CITY    2140            45  200/ 11/ 12   N/A
$$

ABBREVIATIONS USED IN REMARKS
   TC - TEMPERATURE IN CELSIUS
  WCI - WIND CHILL INDEX
   HX - HEAT INDEX
  VSB - VISIBILITY
$$




USA.gov is the U.S. government's official web portal to all federal, state and local government web resources and services.